FW4841 Weather Reports


time (UTC)temp
C
wind
direction
speed
KPH
gust
KPH
rain 1hr
cm
rain 24hr
cm
rain mn
cm
humidity
%
barometer
mb
20260504214547 30 302 0.0 3.2 0.00 0.00 0.00 46 1013.8
20260504213040 30 37 0.0 1.6 0.00 0.00 0.00 48 1013.9
20260504211534 29 105 0.0 4.8 0.00 0.00 0.00 52 1014.2
20260504210040 29 115 0.0 3.2 0.00 0.00 0.00 49 1014.2
20260504204535 29 0 1.6 4.8 0.00 0.00 0.00 50 1014.3
20260504203035 28 77 0.0 3.2 0.00 0.00 0.00 52 1014.4
20260504201537 28 0 0.0 4.8 0.00 0.00 0.00 54 1014.3
20260504200041 28 88 1.6 3.2 0.00 0.00 0.00 51 1014.6
20260504194541 28 86 0.0 4.8 0.00 0.00 0.00 52 1014.7
20260504193035 27 319 1.6 6.4 0.00 0.00 0.00 51 1015.2
20260504191550 27 70 0.0 6.4 0.00 0.00 0.00 52 1015.3
20260504190038 27 283 0.0 8.0 0.00 0.00 0.00 52 1015.4
20260504184548 27 280 0.0 4.8 0.00 0.00 0.00 54 1015.7
20260504183044 27 0 0.0 6.4 0.00 0.00 0.00 55 1016.0
20260504181544 27 165 0.0 4.8 0.00 0.00 0.00 54 1016.2
20260504180036 27 91 1.6 6.4 0.00 0.00 0.00 56 1016.6
20260504174535 27 0 1.6 4.8 0.00 0.00 0.00 56 1016.6
20260504173037 27 293 1.6 9.7 0.00 0.00 0.00 54 1016.5
20260504171535 27 0 0.0 1.6 0.00 0.00 0.00 54 1016.6
20260504081541 -17 0.0 0.0 0.00 0.00 0.00 1016.2
20260504044541 21 0 0.0 0.0 0.00 0.00 0.00 80 1017.1
20260504043039 21 0 0.0 0.0 0.00 0.00 0.00 80 1017.5
20260504041539 21 0 0.0 0.0 0.00 0.00 0.00 80 1017.7
20260504040059 21 0 0.0 0.0 0.00 0.00 0.00 79 1018.0
20260504034553 21 0 0.0 0.0 0.00 0.00 0.00 78 1017.9
20260504033110 21 0 0.0 1.6 0.00 0.00 0.00 78 1017.9
20260504031544 21 0 0.0 1.6 0.00 0.00 0.00 78 1017.9
20260504030045 21 0 0.0 1.6 0.00 0.00 0.00 77 1017.7
20260504024539 22 296 0.0 1.6 0.00 0.00 0.00 76 1017.6
20260504023049 21 0 0.0 1.6 0.00 0.00 0.00 75 1017.6
20260504021538 21 0 0.0 0.0 0.00 0.00 0.00 74 1017.5
20260504020039 21 0 0.0 0.0 0.00 0.00 0.00 75 1017.2
20260504014548 21 0 0.0 1.6 0.00 0.00 0.00 75 1017.0
20260504013045 21 0 0.0 1.6 0.00 0.00 0.00 73 1016.9
20260504011536 22 0 0.0 1.6 0.00 0.00 0.00 73 1016.6
20260504010052 22 0 0.0 1.6 0.00 0.00 0.00 72 1016.5
20260504004551 22 0 0.0 4.8 0.00 0.00 0.00 72 1016.2
20260504003040 22 0 0.0 1.6 0.00 0.00 0.00 70 1016.1
20260504001537 23 356 0.0 6.4 0.00 0.00 0.00 70 1016.0
20260504000044 23 351 1.6 8.0 0.00 0.00 0.00 67 1015.7
20260503234542 24 315 3.2 11.3 0.00 0.00 0.00 67 1015.7
20260503233037 25 338 6.4 11.3 0.00 0.00 0.00 67 1015.6
20260503231540 26 345 8.0 14.5 0.00 0.00 0.00 60 1015.6
20260503230040 27 235 0.0 1.6 0.00 0.00 0.00 59 1015.5
20260503224536 27 0 1.6 8.0 0.00 0.03 0.00 55 1015.4
20260503223038 27 15 0.0 9.7 0.00 0.03 0.00 54 1015.5
20260503221542 28 353 0.0 3.2 0.00 0.03 0.00 53 1015.6
20260503220038 28 6 0.0 4.8 0.00 0.03 0.00 55 1015.7